| time (UTC) | temp F | wind direction | speed knots | gust knots | rain 1hr in | rain 24hr in | rain mn in | humidity % | barometer mb |
| 20260502224840 | 78 | 11 | 6.1 | 11.3 | 0.00 | 0.00 | 0.00 | 16 | 1013.0 |
| 20260502223940 | 76 | 24 | 7.0 | 10.4 | 0.00 | 0.00 | 0.00 | 16 | 1013.0 |
| 20260502223040 | 76 | 17 | 4.3 | 10.4 | 0.00 | 0.00 | 0.00 | 17 | 1013.2 |
| 20260502222140 | 75 | 49 | 4.3 | 8.7 | 0.00 | 0.00 | 0.00 | 18 | 1013.4 |
| 20260502221240 | 75 | 69 | 4.3 | 7.8 | 0.00 | 0.00 | 0.00 | 17 | 1013.4 |
| 20260502220340 | 76 | 77 | 5.2 | 11.3 | 0.00 | 0.00 | 0.00 | 16 | 1013.6 |
| 20260502215440 | 76 | 93 | 3.5 | 9.6 | 0.00 | 0.00 | 0.00 | 18 | 1013.6 |
| 20260502214540 | 76 | 73 | 5.2 | 10.4 | 0.00 | 0.00 | 0.00 | 17 | 1013.8 |
| 20260502213640 | 76 | 72 | 6.1 | 11.3 | 0.00 | 0.00 | 0.00 | 18 | 1014.0 |
| 20260502212740 | 76 | 81 | 2.6 | 8.7 | 0.00 | 0.00 | 0.00 | 21 | 1014.2 |
| 20260502210940 | 76 | 80 | 2.6 | 7.8 | 0.00 | 0.00 | 0.00 | 19 | 1014.2 |
| 20260502210039 | 76 | 94 | 2.6 | 7.0 | 0.00 | 0.00 | 0.00 | 21 | 1014.4 |
| 20260502205140 | 76 | 91 | 3.5 | 7.8 | 0.00 | 0.00 | 0.00 | 18 | 1014.5 |
| 20260502201540 | 77 | 128 | 0.9 | 5.2 | 0.00 | 0.00 | 0.00 | 20 | 1015.1 |
| 20260502195746 | 76 | 217 | 1.7 | 5.2 | 0.00 | 0.00 | 0.00 | 22 | 1015.5 |
| 20260502194839 | 74 | 329 | 2.6 | 7.0 | 0.00 | 0.00 | 0.00 | 18 | 1015.3 |
| 20260502193940 | 74 | 86 | 2.6 | 8.7 | 0.00 | 0.00 | 0.00 | 18 | 1015.5 |
| 20260502193039 | 74 | 99 | 4.3 | 13.0 | 0.00 | 0.00 | 0.00 | 18 | 1015.7 |
| 20260502192140 | 74 | 112 | 3.5 | 11.3 | 0.00 | 0.00 | 0.00 | 24 | 1015.9 |
| 20260502191240 | 74 | 138 | 3.5 | 7.0 | 0.00 | 0.00 | 0.00 | 22 | 1016.0 |
| 20260502190340 | 74 | 106 | 1.7 | 7.0 | 0.00 | 0.00 | 0.00 | 24 | 1016.1 |
| 20260502184539 | 74 | 115 | 1.7 | 6.1 | 0.00 | 0.00 | 0.00 | 26 | 1016.2 |
| 20260502183640 | 74 | 147 | 3.5 | 8.7 | 0.00 | 0.00 | 0.00 | 27 | 1016.6 |
| 20260502182739 | 72 | 103 | 2.6 | 7.0 | 0.00 | 0.00 | 0.00 | 25 | 1016.6 |
| 20260502181839 | 73 | 179 | 3.5 | 10.4 | 0.00 | 0.00 | 0.00 | 26 | 1016.8 |
| 20260502180940 | 72 | 134 | 3.5 | 8.7 | 0.00 | 0.00 | 0.00 | 25 | 1016.7 |
| 20260502163939 | 64 | 96 | 5.2 | 8.7 | 0.00 | 0.00 | 0.00 | 42 | 1017.4 |
| 20260502163039 | 63 | 100 | 5.2 | 9.6 | 0.00 | 0.00 | 0.00 | 42 | 1017.5 |
| 20260502162139 | 62 | 95 | 5.2 | 9.6 | 0.00 | 0.00 | 0.00 | 43 | 1017.4 |
| 20260502161240 | 61 | 85 | 4.3 | 7.0 | 0.00 | 0.00 | 0.00 | 45 | 1017.5 |
| 20260502160339 | 61 | 91 | 5.2 | 8.7 | 0.00 | 0.00 | 0.00 | 47 | 1017.6 |
| 20260502151839 | 54 | 87 | 5.2 | 9.6 | 0.00 | 0.00 | 0.00 | 56 | 1018.0 |
| 20260502150939 | 53 | 75 | 6.1 | 8.7 | 0.00 | 0.00 | 0.00 | 53 | 1018.0 |
| 20260502130339 | 44 | 59 | 4.3 | 7.8 | 0.00 | 0.00 | 0.00 | 54 | 1017.5 |
| 20260502123639 | 43 | 42 | 6.1 | 8.7 | 0.00 | 0.00 | 0.00 | 54 | 1017.3 |
| 20260502122739 | 43 | 45 | 6.1 | 9.6 | 0.00 | 0.00 | 0.00 | 54 | 1017.3 |
| 20260502121839 | 42 | 45 | 6.1 | 9.6 | 0.00 | 0.00 | 0.00 | 55 | 1017.4 |
| 20260502120939 | 42 | 45 | 5.2 | 9.6 | 0.00 | 0.00 | 0.00 | 55 | 1017.5 |
| 20260502115139 | 43 | 42 | 5.2 | 7.8 | 0.00 | 0.00 | 0.00 | 54 | 1017.4 |
| 20260502114239 | 42 | 36 | 5.2 | 9.6 | 0.00 | 0.00 | 0.00 | 55 | 1017.2 |
| 20260502113339 | 43 | 40 | 7.0 | 11.3 | 0.00 | 0.00 | 0.00 | 53 | 1017.5 |
| 20260502112439 | 43 | 37 | 5.2 | 8.7 | 0.00 | 0.00 | 0.00 | 54 | 1017.5 |
| 20260502111539 | 42 | 33 | 5.2 | 8.7 | 0.00 | 0.00 | 0.00 | 56 | 1017.2 |
| 20260502110639 | 42 | 33 | 6.1 | 9.6 | 0.00 | 0.00 | 0.00 | 55 | 1017.4 |
| 20260502105739 | 43 | 41 | 5.2 | 8.7 | 0.00 | 0.00 | 0.00 | 53 | 1017.5 |
| 20260502104839 | 42 | 32 | 5.2 | 7.8 | 0.00 | 0.00 | 0.00 | 54 | 1017.1 |
| 20260502103039 | 41 | 24 | 3.5 | 7.0 | 0.00 | 0.00 | 0.00 | 56 | 1017.3 |
| 20260502102139 | 42 | 14 | 1.7 | 5.2 | 0.00 | 0.00 | 0.00 | 54 | 1017.4 |
| 20260502101239 | 43 | 27 | 2.6 | 5.2 | 0.00 | 0.00 | 0.00 | 51 | 1017.3 |
| 20260502100339 | 44 | 28 | 2.6 | 5.2 | 0.00 | 0.00 | 0.00 | 50 | 1017.3 |
| 20260502071239 | 47 | 58 | 1.7 | 3.5 | 0.00 | 0.00 | 0.00 | 48 | 1017.4 |
| 20260502070339 | 47 | 48 | 2.6 | 4.3 | 0.00 | 0.00 | 0.00 | 48 | 1017.4 |
| 20260502065439 | 46 | 54 | 2.6 | 3.5 | 0.00 | 0.00 | 0.00 | 52 | 1017.4 |
| 20260502064539 | 45 | 66 | 0.9 | 3.5 | 0.00 | 0.00 | 0.00 | 55 | 1017.5 |
| 20260502063639 | 45 | 73 | 0.9 | 1.7 | 0.00 | 0.00 | 0.00 | 54 | 1017.3 |
| 20260502062739 | 45 | 46 | 2.6 | 4.3 | 0.00 | 0.00 | 0.00 | 54 | 1017.2 |
| 20260502061839 | 45 | 54 | 1.7 | 3.5 | 0.00 | 0.00 | 0.00 | 54 | 1017.2 |
| 20260502060939 | 45 | 45 | 0.9 | 2.6 | 0.00 | 0.00 | 0.00 | 53 | 1017.3 |
| 20260502055139 | 46 | 83 | 0.9 | 1.7 | 0.00 | 0.00 | 0.00 | 50 | 1017.5 |
| 20260502054239 | 48 | 76 | 0.9 | 1.7 | 0.00 | 0.00 | 0.00 | 48 | 1017.5 |
| 20260502053339 | 47 | 69 | 0.9 | 1.7 | 0.00 | 0.00 | 0.00 | 48 | 1017.4 |
| 20260502052439 | 48 | 79 | 0.9 | 2.6 | 0.00 | 0.00 | 0.00 | 46 | 1017.5 |
| 20260502051539 | 49 | 87 | 0.0 | 2.6 | 0.00 | 0.00 | 0.00 | 42 | 1017.4 |
| 20260502050639 | 52 | 86 | 0.9 | 1.7 | 0.00 | 0.00 | 0.00 | 41 | 1017.3 |
| 20260502044839 | 50 | 60 | 0.0 | 0.9 | 0.00 | 0.00 | 0.00 | 43 | 1017.3 |
| 20260502043942 | 51 | 62 | 0.0 | 0.9 | 0.00 | 0.00 | 0.00 | 43 | 1017.3 |
| 20260502043039 | 50 | 60 | 0.0 | 1.7 | 0.00 | 0.00 | 0.00 | 45 | 1017.3 |
| 20260502042139 | 50 | 68 | 0.0 | 1.7 | 0.00 | 0.00 | 0.00 | 45 | 1017.2 |
| 20260502041240 | 50 | 75 | 0.0 | 1.7 | 0.00 | 0.00 | 0.00 | 45 | 1017.1 |
| 20260502040339 | 50 | 65 | 0.0 | 1.7 | 0.00 | 0.00 | 0.00 | 44 | 1017.0 |
| 20260502035439 | 51 | 71 | 0.0 | 0.9 | 0.00 | 0.00 | 0.00 | 42 | 1017.1 |
| 20260502034539 | 52 | 71 | 0.0 | 0.9 | 0.00 | 0.00 | 0.00 | 42 | 1017.0 |
| 20260502033639 | 51 | 72 | 0.9 | 1.7 | 0.00 | 0.00 | 0.00 | 43 | 1016.9 |
| 20260502032739 | 53 | 76 | 0.0 | 0.9 | 0.00 | 0.00 | 0.00 | 41 | 1016.8 |
| 20260502031839 | 53 | 77 | 0.0 | 0.9 | 0.00 | 0.00 | 0.00 | 41 | 1016.7 |
| 20260502030939 | 53 | 69 | 0.9 | 1.7 | 0.00 | 0.00 | 0.00 | 41 | 1016.7 |
| 20260502030039 | 54 | 65 | 0.9 | 1.7 | 0.00 | 0.00 | 0.00 | 41 | 1016.5 |
| 20260502025139 | 56 | 72 | 1.7 | 2.6 | 0.00 | 0.00 | 0.00 | 40 | 1016.5 |
| 20260502024239 | 58 | 75 | 0.9 | 1.7 | 0.00 | 0.00 | 0.00 | 38 | 1016.5 |
| 20260502023339 | 58 | 75 | 0.9 | 1.7 | 0.00 | 0.00 | 0.00 | 37 | 1016.3 |
| 20260502022439 | 60 | 75 | 0.9 | 1.7 | 0.00 | 0.00 | 0.00 | 35 | 1016.5 |
| 20260502021539 | 63 | 76 | 0.9 | 1.7 | 0.00 | 0.00 | 0.00 | 32 | 1016.4 |
| 20260502020639 | 66 | 77 | 0.0 | 0.9 | 0.00 | 0.00 | 0.00 | 30 | 1016.6 |
| 20260502014839 | 69 | 102 | 1.7 | 3.5 | 0.00 | 0.00 | 0.00 | 27 | 1016.5 |
| 20260502013039 | 70 | 101 | 1.7 | 6.1 | 0.00 | 0.00 | 0.00 | 28 | 1016.5 |
| 20260502012139 | 70 | 100 | 0.9 | 3.5 | 0.00 | 0.00 | 0.00 | 26 | 1016.4 |
| 20260502011239 | 71 | 92 | 0.9 | 2.6 | 0.00 | 0.00 | 0.00 | 23 | 1016.6 |
| 20260502004539 | 71 | 128 | 0.9 | 2.6 | 0.00 | 0.00 | 0.00 | 24 | 1016.7 |
| 20260502003639 | 70 | 87 | 1.7 | 5.2 | 0.00 | 0.00 | 0.00 | 25 | 1016.8 |
| 20260502002739 | 72 | 123 | 0.9 | 2.6 | 0.00 | 0.00 | 0.00 | 25 | 1016.8 |
| 20260502001839 | 71 | 107 | 0.9 | 6.1 | 0.00 | 0.00 | 0.00 | 24 | 1016.9 |
| 20260502000039 | 71 | 104 | 1.7 | 5.2 | 0.00 | 0.00 | 0.00 | 25 | 1017.0 |
| 20260501232439 | 71 | 116 | 1.7 | 7.8 | 0.00 | 0.00 | 0.00 | 23 | 1017.3 |
| 20260501225738 | 71 | 197 | 1.7 | 5.2 | 0.00 | 0.00 | 0.00 | 28 | 1017.7 |